Location: Muck Cross
(36.7179°N, 78.3678°W)
Time: 16:36:32
(UTC+00:00)

Explorer 7 - Visible Passes

Search period start: 31 March 2023 00:00
Search period end: 10 April 2023 00:00
Orbit: 478 x 657 km, 50.3° (Epoch: 30 March)

Date Brightness Start Highest point End Pass type
(mag) Time Alt. Az. Time Alt. Az. Time Alt. Az.
31 Mar 7.8 01:36:28 10° NW 01:39:42 38° N 01:39:42 38° N visible
31 Mar 8.8 23:56:44 10° NNW 23:59:45 18° NNE 00:02:39 10° ENE visible
01 Apr 7.3 01:36:29 10° NW 01:39:55 53° NNW 01:39:55 53° NNW visible
01 Apr 8.5 23:56:40 10° NNW 00:00:05 22° NNE 00:03:20 10° ENE visible
02 Apr 7.1 01:36:33 10° NW 01:40:11 64° WNW 01:40:11 64° WNW visible
02 Apr 8.1 23:56:35 10° NW 00:00:21 28° NNE 00:03:56 10° E visible
03 Apr 7.4 01:36:42 10° WNW 01:40:30 49° WSW 01:40:30 49° WSW visible
03 Apr 7.7 23:56:30 10° NW 00:00:34 38° NNE 00:04:23 10° E visible
04 Apr 8.1 01:36:59 10° WNW 01:40:41 31° SW 01:40:52 31° SW visible
04 Apr 7.1 23:56:25 10° NW 00:00:41 55° NE 00:04:41 10° ESE visible
05 Apr 8.8 01:37:30 10° W 01:40:32 20° SW 01:41:18 19° SW visible
06 Apr 9.4 01:38:40 10° WSW 01:40:19 12° SW 01:41:49 10° SSW visible
